Time,TemperatureF,DewpointF,PressureIn,WindDirection,WindDirectionDegrees,WindSpeedMPH,WindSpeedGustMPH,Humidity,HourlyPrecipIn,Conditions,Clouds,dailyrainin,SoftwareType,DateUTC
2013-07-11 00:02:00,66.6,58.4,30.04,NW,313,0.0,0.0,75,0.00,CLR,SKC,0.00,WeatherDisplay:10.37,2013-07-11 05:02:00,
2013-07-11 00:07:00,66.3,58.1,30.04,NW,313,0.0,0.0,75,0.00,CLR,SKC,0.00,WeatherDisplay:10.37,2013-07-11 05:07:00,
2013-07-11 00:12:00,66.1,58.3,30.05,NW,313,0.0,0.0,76,0.00,CLR,SKC,0.00,WeatherDisplay:10.37,2013-07-11 05:12:00,
2013-07-11 00:17:00,66.0,58.2,30.05,NW,313,0.0,0.0,76,0.00,CLR,SKC,0.00,WeatherDisplay:10.37,2013-07-11 05:17:00,
2013-07-11 00:22:00,66.1,58.3,30.05,NW,313,0.0,0.0,76,0.00,CLR,SKC,0.00,WeatherDisplay:10.37,2013-07-11 05:22:00,
2013-07-11 00:27:00,66.1,58.3,30.05,NW,313,0.0,0.0,76,0.00,CLR,SKC,0.00,WeatherDisplay:10.37,2013-07-11 05:27:00,
2013-07-11 00:32:00,66.0,58.6,30.05,NW,313,0.0,0.0,77,0.00,CLR,SKC,0.00,WeatherDisplay:10.37,2013-07-11 05:32:00,
2013-07-11 00:37:00,65.8,58.4,30.05,NW,313,0.0,0.0,77,0.00,CLR,SKC,0.00,WeatherDisplay:10.37,2013-07-11 05:37:00,
2013-07-11 00:42:00,65.7,58.3,30.05,NW,313,0.0,0.0,77,0.00,CLR,SKC,0.00,WeatherDisplay:10.37,2013-07-11 05:42:00,
2013-07-11 00:47:00,65.6,58.2,30.05,NW,313,0.0,0.0,77,0.00,CLR,SKC,0.00,WeatherDisplay:10.37,2013-07-11 05:47:00,
2013-07-11 00:52:00,65.4,58.0,30.05,NW,313,0.0,0.0,77,0.00,CLR,SKC,0.00,WeatherDisplay:10.37,2013-07-11 05:52:00,
2013-07-11 00:57:00,65.3,57.9,30.05,NW,313,0.0,0.0,77,0.00,CLR,SKC,0.00,WeatherDisplay:10.37,2013-07-11 05:57:00,
2013-07-11 01:02:00,65.0,58.0,30.05,NW,313,0.0,0.0,78,0.00,CLR,SKC,0.00,WeatherDisplay:10.37,2013-07-11 06:02:00,
2013-07-11 01:07:00,64.8,57.8,30.05,NW,313,0.0,0.0,78,0.00,CLR,SKC,0.00,WeatherDisplay:10.37,2013-07-11 06:07:00,
2013-07-11 01:12:00,64.6,57.9,30.06,NW,313,0.0,0.0,79,0.00,CLR,SKC,0.00,WeatherDisplay:10.37,2013-07-11 06:12:00,
2013-07-11 01:17:00,64.5,58.2,30.06,NW,313,0.0,0.0,80,0.00,CLR,SKC,0.00,WeatherDisplay:10.37,2013-07-11 06:17:00,
2013-07-11 01:22:00,64.3,58.0,30.06,NW,313,0.0,0.0,80,0.00,CLR,SKC,0.00,WeatherDisplay:10.37,2013-07-11 06:22:00,
2013-07-11 01:27:00,64.1,57.8,30.06,NW,313,0.0,0.0,80,0.00,CLR,SKC,0.00,WeatherDisplay:10.37,2013-07-11 06:27:00,
2013-07-11 01:32:00,63.9,58.0,30.06,NW,313,0.0,0.0,81,0.00,CLR,SKC,0.00,WeatherDisplay:10.37,2013-07-11 06:32:00,
2013-07-11 01:37:00,63.7,57.8,30.06,NW,313,0.0,0.0,81,0.00,CLR,SKC,0.00,WeatherDisplay:10.37,2013-07-11 06:37:00,
2013-07-11 01:42:00,63.5,57.9,30.06,NW,313,0.0,0.0,82,0.00,CLR,SKC,0.00,WeatherDisplay:10.37,2013-07-11 06:42:00,
2013-07-11 01:47:00,63.3,57.7,30.06,NW,313,0.0,0.0,82,0.00,CLR,SKC,0.00,WeatherDisplay:10.37,2013-07-11 06:47:00,
2013-07-11 01:52:00,63.1,57.9,30.06,NW,313,0.0,0.0,83,0.00,CLR,SKC,0.00,WeatherDisplay:10.37,2013-07-11 06:52:00,
2013-07-11 01:57:00,62.9,57.7,30.06,NW,313,0.0,0.0,83,0.00,CLR,SKC,0.00,WeatherDisplay:10.37,2013-07-11 06:57:00,
2013-07-11 02:02:00,62.7,57.8,30.06,NW,313,0.0,0.0,84,0.00,CLR,SKC,0.00,WeatherDisplay:10.37,2013-07-11 07:02:00,
2013-07-11 02:07:00,62.8,57.9,30.06,NW,313,0.0,0.0,84,0.00,CLR,SKC,0.00,WeatherDisplay:10.37,2013-07-11 07:07:00,
2013-07-11 02:12:00,62.9,58.0,30.06,NW,313,0.0,0.0,84,0.00,CLR,SKC,0.00,WeatherDisplay:10.37,2013-07-11 07:12:00,
2013-07-11 02:17:00,63.0,58.4,30.06,NW,313,0.0,0.0,85,0.00,CLR,SKC,0.00,WeatherDisplay:10.37,2013-07-11 07:17:00,
2013-07-11 02:22:00,63.0,58.1,30.06,NW,313,0.0,0.0,84,0.00,CLR,SKC,0.00,WeatherDisplay:10.37,2013-07-11 07:22:00,
2013-07-11 02:27:00,63.3,58.0,30.06,NW,313,0.0,0.0,83,0.00,CLR,SKC,0.00,WeatherDisplay:10.37,2013-07-11 07:27:00,
2013-07-11 02:32:00,63.6,58.3,30.06,NW,313,0.0,0.0,83,0.00,CLR,SKC,0.00,WeatherDisplay:10.37,2013-07-11 07:32:00,
2013-07-11 02:37:00,63.6,58.3,30.06,NW,313,0.0,0.0,83,0.00,CLR,SKC,0.00,WeatherDisplay:10.37,2013-07-11 07:37:00,
2013-07-11 02:42:00,63.5,58.2,30.06,NW,313,0.0,0.0,83,0.00,CLR,SKC,0.00,WeatherDisplay:10.37,2013-07-11 07:42:00,
2013-07-11 02:47:00,63.3,58.0,30.06,NW,313,0.0,0.0,83,0.00,CLR,SKC,0.00,WeatherDisplay:10.37,2013-07-11 07:47:00,
2013-07-11 02:52:00,63.2,57.9,30.06,NW,313,0.0,0.0,83,0.00,CLR,SKC,0.00,WeatherDisplay:10.37,2013-07-11 07:52:00,
2013-07-11 02:57:00,63.0,58.1,30.06,NW,313,0.0,0.0,84,0.00,CLR,SKC,0.00,WeatherDisplay:10.37,2013-07-11 07:57:00,
2013-07-11 03:02:00,62.8,57.9,30.06,NW,313,0.0,0.0,84,0.00,CLR,SKC,0.00,WeatherDisplay:10.37,2013-07-11 08:02:00,
2013-07-11 03:07:00,62.6,58.0,30.07,NW,313,0.0,0.0,85,0.00,CLR,SKC,0.00,WeatherDisplay:10.37,2013-07-11 08:07:00,
2013-07-11 03:12:00,62.5,57.9,30.07,NW,313,0.0,0.0,85,0.00,CLR,SKC,0.00,WeatherDisplay:10.37,2013-07-11 08:12:00,
2013-07-11 03:17:00,62.4,58.2,30.07,NW,313,0.0,0.0,86,0.00,CLR,SKC,0.00,WeatherDisplay:10.37,2013-07-11 08:17:00,
2013-07-11 03:22:00,62.4,58.2,30.07,NW,313,0.0,0.0,86,0.00,CLR,SKC,0.00,WeatherDisplay:10.37,2013-07-11 08:22:00,
2013-07-11 03:27:00,62.3,58.1,30.07,NW,313,0.0,0.0,86,0.00,CLR,SKC,0.00,WeatherDisplay:10.37,2013-07-11 08:27:00,
2013-07-11 03:32:00,62.2,58.0,30.07,NW,313,0.0,0.0,86,0.00,CLR,SKC,0.00,WeatherDisplay:10.37,2013-07-11 08:32:00,
2013-07-11 03:37:00,62.0,57.8,30.07,NW,313,0.0,0.0,86,0.00,CLR,SKC,0.00,WeatherDisplay:10.37,2013-07-11 08:37:00,
2013-07-11 03:42:00,61.7,57.8,30.07,NW,313,0.0,0.0,87,0.00,CLR,SKC,0.00,WeatherDisplay:10.37,2013-07-11 08:42:00,
2013-07-11 03:47:00,61.6,57.7,30.07,NW,313,0.0,0.0,87,0.00,CLR,SKC,0.00,WeatherDisplay:10.37,2013-07-11 08:47:00,
2013-07-11 03:52:00,61.4,57.5,30.07,NW,313,0.0,0.0,87,0.00,CLR,SKC,0.00,WeatherDisplay:10.37,2013-07-11 08:52:00,
2013-07-11 03:57:00,61.3,57.7,30.07,NW,313,0.0,0.0,88,0.00,CLR,SKC,0.00,WeatherDisplay:10.37,2013-07-11 08:57:00,
2013-07-11 04:02:00,61.3,57.7,30.07,NW,313,0.0,0.0,88,0.00,CLR,SKC,0.00,WeatherDisplay:10.37,2013-07-11 09:02:00,
2013-07-11 04:07:00,61.3,58.0,30.07,NW,313,0.0,0.0,89,0.00,CLR,SKC,0.00,WeatherDisplay:10.37,2013-07-11 09:07:00,
2013-07-11 04:12:00,61.4,58.1,30.07,NW,313,0.0,0.0,89,0.00,CLR,SKC,0.00,WeatherDisplay:10.37,2013-07-11 09:12:00,
2013-07-11 04:17:00,61.5,58.5,30.07,NW,313,0.0,0.0,90,0.00,CLR,SKC,0.00,WeatherDisplay:10.37,2013-07-11 09:17:00,
2013-07-11 04:22:00,61.6,58.6,30.07,NW,313,0.0,0.0,90,0.00,CLR,SKC,0.00,WeatherDisplay:10.37,2013-07-11 09:22:00,
2013-07-11 04:27:00,61.7,58.7,30.07,NW,313,0.0,0.0,90,0.00,CLR,SKC,0.00,WeatherDisplay:10.37,2013-07-11 09:27:00,
2013-07-11 04:32:00,61.5,58.5,30.07,NW,313,0.0,0.0,90,0.00,CLR,SKC,0.00,WeatherDisplay:10.37,2013-07-11 09:32:00,
2013-07-11 04:37:00,61.4,58.4,30.07,NW,313,0.0,0.0,90,0.00,CLR,SKC,0.00,WeatherDisplay:10.37,2013-07-11 09:37:00,
2013-07-11 04:42:00,61.0,58.0,30.07,NW,313,0.0,0.0,90,0.00,CLR,SKC,0.00,WeatherDisplay:10.37,2013-07-11 09:42:00,
2013-07-11 04:47:00,61.0,58.0,30.08,NW,313,0.0,0.0,90,0.00,CLR,SKC,0.00,WeatherDisplay:10.37,2013-07-11 09:47:00,
2013-07-11 04:52:00,61.1,58.1,30.08,NW,313,0.0,0.0,90,0.00,CLR,SKC,0.00,WeatherDisplay:10.37,2013-07-11 09:52:00,
2013-07-11 04:58:00,61.2,58.6,30.08,NW,313,0.0,0.0,91,0.00,CLR,SKC,0.00,WeatherDisplay:10.37,2013-07-11 09:58:00,
2013-07-11 05:03:00,61.2,58.6,30.08,NW,313,0.0,0.0,91,0.00,CLR,SKC,0.00,WeatherDisplay:10.37,2013-07-11 10:03:00,
2013-07-11 05:08:00,61.0,58.4,30.08,NW,313,0.0,0.0,91,0.00,CLR,SKC,0.00,WeatherDisplay:10.37,2013-07-11 10:08:00,
2013-07-11 05:13:00,61.0,58.4,30.08,NW,313,0.0,0.0,91,0.00,CLR,SKC,0.00,WeatherDisplay:10.37,2013-07-11 10:13:00,
2013-07-11 05:18:00,61.1,58.5,30.08,NW,313,0.0,0.0,91,0.00,CLR,SKC,0.00,WeatherDisplay:10.37,2013-07-11 10:18:00,
2013-07-11 05:23:00,61.2,58.6,30.08,NW,313,0.0,0.0,91,0.00,CLR,SKC,0.00,WeatherDisplay:10.37,2013-07-11 10:23:00,
2013-07-11 05:28:00,61.3,58.7,30.08,NW,313,0.0,0.0,91,0.00,CLR,SKC,0.00,WeatherDisplay:10.37,2013-07-11 10:28:00,
2013-07-11 05:33:00,61.3,58.7,30.08,NW,313,0.0,0.0,91,0.00,CLR,SKC,0.00,WeatherDisplay:10.37,2013-07-11 10:33:00,
2013-07-11 05:38:00,61.2,58.6,30.09,NW,313,0.0,0.0,91,0.00,CLR,SKC,0.00,WeatherDisplay:10.37,2013-07-11 10:38:00,
2013-07-11 05:43:00,61.1,58.8,30.09,NW,313,0.0,0.0,92,0.00,CLR,SKC,0.00,WeatherDisplay:10.37,2013-07-11 10:43:00,
2013-07-11 05:45:00,61.2,58.9,30.09,NW,314,0.0,0.0,92,0.00,CLR,SKC,0.00,WeatherDisplay:10.37,2013-07-11 10:45:00,
2013-07-11 05:50:00,61.1,58.8,30.09,NW,315,0.0,0.0,92,0.00,CLR,SKC,0.00,WeatherDisplay:10.37,2013-07-11 10:50:00,
2013-07-11 05:55:00,61.0,58.7,30.09,NW,315,0.0,0.0,92,0.00,CLR,SKC,0.00,WeatherDisplay:10.37,2013-07-11 10:55:00,
2013-07-11 06:00:00,60.9,58.6,30.09,NW,315,0.0,0.0,92,0.00,CLR,SKC,0.00,WeatherDisplay:10.37,2013-07-11 11:00:00,
2013-07-11 06:05:00,60.9,58.6,30.09,NW,315,0.0,0.0,92,0.00,CLR,SKC,0.00,WeatherDisplay:10.37,2013-07-11 11:05:00,
2013-07-11 06:10:00,61.1,58.8,30.09,NW,315,0.0,0.0,92,0.00,CLR,SKC,0.00,WeatherDisplay:10.37,2013-07-11 11:10:00,
2013-07-11 06:15:00,61.0,58.7,30.09,NW,315,0.0,0.0,92,0.00,CLR,SKC,0.00,WeatherDisplay:10.37,2013-07-11 11:15:00,
2013-07-11 06:25:00,61.1,58.8,30.09,NW,315,0.0,0.0,92,0.00,CLR,SKC,0.00,WeatherDisplay:10.37,2013-07-11 11:25:00,
2013-07-11 06:30:00,61.2,58.9,30.09,NW,313,0.0,0.0,92,0.00,CLR,SKC,0.00,WeatherDisplay:10.37,2013-07-11 11:30:00,
2013-07-11 06:35:00,61.2,58.9,30.09,NW,313,0.0,0.0,92,0.00,CLR,SKC,0.00,WeatherDisplay:10.37,2013-07-11 11:35:00,
2013-07-11 06:40:00,61.2,58.9,30.09,NW,313,0.0,0.0,92,0.00,CLR,SKC,0.00,WeatherDisplay:10.37,2013-07-11 11:40:00,
2013-07-11 06:45:00,61.3,59.0,30.10,NW,313,0.0,0.0,92,0.00,CLR,SKC,0.00,WeatherDisplay:10.37,2013-07-11 11:45:00,
2013-07-11 06:50:00,61.4,59.1,30.10,NW,313,0.0,0.0,92,0.00,CLR,SKC,0.00,WeatherDisplay:10.37,2013-07-11 11:50:00,
2013-07-11 06:55:00,61.6,59.3,30.10,NW,313,0.0,0.0,92,0.00,CLR,SKC,0.00,WeatherDisplay:10.37,2013-07-11 11:55:00,
2013-07-11 07:00:00,61.9,59.5,30.10,NW,313,0.0,0.0,92,0.00,CLR,SKC,0.00,WeatherDisplay:10.37,2013-07-11 12:00:00,
2013-07-11 07:05:00,62.1,59.7,30.10,NW,313,0.0,0.0,92,0.00,CLR,SKC,0.00,WeatherDisplay:10.37,2013-07-11 12:05:00,
2013-07-11 07:10:00,62.4,60.0,30.10,NW,313,0.0,0.0,92,0.00,CLR,SKC,0.00,WeatherDisplay:10.37,2013-07-11 12:10:00,
2013-07-11 07:15:00,62.7,60.3,30.10,NW,313,0.0,0.0,92,0.00,CLR,SKC,0.00,WeatherDisplay:10.37,2013-07-11 12:15:00,
2013-07-11 07:20:00,62.9,60.5,30.10,NW,313,0.0,0.0,92,0.00,CLR,SKC,0.00,WeatherDisplay:10.37,2013-07-11 12:20:00,
2013-07-11 07:25:00,63.2,61.1,30.10,NW,313,0.0,0.0,93,0.00,CLR,SKC,0.00,WeatherDisplay:10.37,2013-07-11 12:25:00,
2013-07-11 07:30:00,63.7,61.3,30.10,NW,313,0.0,0.0,92,0.00,CLR,SKC,0.00,WeatherDisplay:10.37,2013-07-11 12:30:00,
2013-07-11 07:35:00,64.0,61.6,30.10,NW,313,0.0,0.0,92,0.00,CLR,SKC,0.00,WeatherDisplay:10.37,2013-07-11 12:35:00,
2013-07-11 07:40:00,64.3,61.9,30.10,NW,313,0.0,0.0,92,0.00,CLR,SKC,0.00,WeatherDisplay:10.37,2013-07-11 12:40:00,
2013-07-11 07:45:00,64.7,62.3,30.10,NW,313,0.0,0.0,92,0.00,CLR,SKC,0.00,WeatherDisplay:10.37,2013-07-11 12:45:00,
2013-07-11 07:50:00,65.3,62.6,30.09,NW,313,0.0,0.0,91,0.00,CLR,SKC,0.00,WeatherDisplay:10.37,2013-07-11 12:50:00,
2013-07-11 07:55:00,66.1,63.4,30.09,NW,313,0.0,0.0,91,0.00,CLR,SKC,0.00,WeatherDisplay:10.37,2013-07-11 12:55:00,
2013-07-11 08:00:00,67.0,64.0,30.09,NW,313,0.0,0.0,90,0.00,CLR,SKC,0.00,WeatherDisplay:10.37,2013-07-11 13:00:00,
2013-07-11 08:06:00,68.0,64.0,30.09,NW,313,0.0,0.0,87,0.00,CLR,SKC,0.00,WeatherDisplay:10.37,2013-07-11 13:06:00,
2013-07-11 08:11:00,69.2,63.8,30.09,NW,313,0.0,0.0,83,0.00,CLR,SKC,0.00,WeatherDisplay:10.37,2013-07-11 13:11:00,
2013-07-11 08:16:00,70.0,63.5,30.09,NW,313,0.0,0.0,80,0.00,CLR,SKC,0.00,WeatherDisplay:10.37,2013-07-11 13:16:00,
2013-07-11 08:21:00,70.3,62.0,30.09,NW,313,0.0,0.0,75,0.00,CLR,SKC,0.00,WeatherDisplay:10.37,2013-07-11 13:21:00,
2013-07-11 08:27:00,70.8,62.5,30.09,NW,313,0.0,0.0,75,0.00,CLR,SKC,0.00,WeatherDisplay:10.37,2013-07-11 13:27:00,
2013-07-11 08:32:00,71.3,63.0,30.09,NW,313,0.0,0.0,75,0.00,CLR,SKC,0.00,WeatherDisplay:10.37,2013-07-11 13:32:00,
2013-07-11 08:37:00,72.0,62.5,30.09,NW,313,0.0,0.0,72,0.00,CLR,SKC,0.00,WeatherDisplay:10.37,2013-07-11 13:37:00,
2013-07-11 08:42:00,72.7,62.3,30.09,NW,313,0.0,0.0,70,0.00,CLR,SKC,0.00,WeatherDisplay:10.37,2013-07-11 13:42:00,
2013-07-11 08:47:00,73.2,62.8,30.09,NW,313,0.0,0.0,70,0.00,CLR,SKC,0.00,WeatherDisplay:10.37,2013-07-11 13:47:00,
2013-07-11 08:52:00,73.9,62.7,30.09,NW,313,0.0,0.0,68,0.00,CLR,SKC,0.00,WeatherDisplay:10.37,2013-07-11 13:52:00,
2013-07-11 08:57:00,74.2,62.5,30.09,NW,313,0.0,0.0,67,0.00,CLR,SKC,0.00,WeatherDisplay:10.37,2013-07-11 13:57:00,
2013-07-11 09:02:00,74.2,62.1,30.09,NW,313,0.0,0.0,66,0.00,CLR,SKC,0.00,WeatherDisplay:10.37,2013-07-11 14:02:00,
2013-07-11 09:08:00,74.7,62.6,30.09,NW,313,0.0,0.0,66,0.00,CLR,SKC,0.00,WeatherDisplay:10.37,2013-07-11 14:08:00,
2013-07-11 09:13:00,75.5,62.9,30.09,NW,313,0.0,0.0,65,0.00,CLR,SKC,0.00,WeatherDisplay:10.37,2013-07-11 14:13:00,
2013-07-11 09:19:00,76.0,62.9,30.09,NW,313,0.0,0.0,64,0.00,CLR,SKC,0.00,WeatherDisplay:10.37,2013-07-11 14:19:00,
2013-07-11 09:24:00,76.6,63.1,30.09,NW,313,0.0,0.0,63,0.00,CLR,SKC,0.00,WeatherDisplay:10.37,2013-07-11 14:24:00,
2013-07-11 09:29:00,76.8,62.8,30.08,NW,313,0.0,0.0,62,0.00,CLR,SKC,0.00,WeatherDisplay:10.37,2013-07-11 14:29:00,
2013-07-11 09:34:00,77.0,63.4,30.08,NW,313,0.0,0.0,63,0.00,CLR,SKC,0.00,WeatherDisplay:10.37,2013-07-11 14:34:00,
2013-07-11 09:40:00,77.4,61.9,30.09,South,183,3.5,0.0,59,0.00,CLR,SKC,0.00,WeatherDisplay:10.37,2013-07-11 14:40:00,
2013-07-11 09:45:00,77.6,62.1,30.09,SSW,207,1.2,0.0,59,0.00,CLR,SKC,0.00,WeatherDisplay:10.37,2013-07-11 14:45:00,
2013-07-11 09:50:00,77.5,60.6,30.09,SSW,207,0.0,0.0,56,0.00,CLR,SKC,0.00,WeatherDisplay:10.37,2013-07-11 14:50:00,
2013-07-11 09:55:00,77.4,61.5,30.09,SSW,200,0.0,0.0,58,0.00,CLR,SKC,0.00,WeatherDisplay:10.37,2013-07-11 14:55:00,
2013-07-11 10:00:00,78.2,61.2,30.09,SSW,200,0.0,0.0,56,0.00,CLR,SKC,0.00,WeatherDisplay:10.37,2013-07-11 15:00:00,
2013-07-11 10:05:00,78.4,60.9,30.08,SSW,210,0.0,0.1,55,0.00,CLR,SKC,0.00,WeatherDisplay:10.37,2013-07-11 15:05:00,
2013-07-11 10:11:00,78.4,60.9,30.08,SSW,210,0.0,0.0,55,0.00,CLR,SKC,0.00,WeatherDisplay:10.37,2013-07-11 15:11:00,
2013-07-11 10:16:00,78.7,59.6,30.08,SSE,167,3.5,3.5,52,0.00,CLR,SKC,0.00,WeatherDisplay:10.37,2013-07-11 15:16:00,
2013-07-11 10:21:00,79.3,60.1,30.08,SSE,153,0.0,0.0,52,0.00,CLR,SKC,0.00,WeatherDisplay:10.37,2013-07-11 15:21:00,
2013-07-11 10:27:00,80.0,61.3,30.08,SSE,157,0.0,0.0,53,0.00,CLR,SKC,0.00,WeatherDisplay:10.37,2013-07-11 15:27:00,
2013-07-11 10:32:00,80.0,59.1,30.09,SW,218,4.6,4.6,49,0.00,CLR,SKC,0.00,WeatherDisplay:10.37,2013-07-11 15:32:00,
2013-07-11 10:37:00,79.9,61.2,30.09,South,171,0.0,0.0,53,0.00,CLR,SKC,0.00,WeatherDisplay:10.37,2013-07-11 15:37:00,
2013-07-11 10:42:00,80.2,59.9,30.08,SW,232,4.6,4.6,50,0.00,CLR,SKC,0.00,WeatherDisplay:10.37,2013-07-11 15:42:00,
2013-07-11 10:47:00,80.3,60.0,30.08,South,184,3.5,3.5,50,0.00,CLR,SKC,0.00,WeatherDisplay:10.37,2013-07-11 15:47:00,
2013-07-11 10:52:00,80.3,59.4,30.08,SSW,195,1.2,0.0,49,0.00,CLR,SKC,0.00,WeatherDisplay:10.37,2013-07-11 15:52:00,
2013-07-11 10:58:00,80.5,58.4,30.08,South,185,3.5,3.5,47,0.00,CLR,SKC,0.00,WeatherDisplay:10.37,2013-07-11 15:58:00,
2013-07-11 11:03:00,80.5,58.4,30.08,SSW,196,9.2,9.2,47,0.00,CLR,SKC,0.00,WeatherDisplay:10.37,2013-07-11 16:03:00,
2013-07-11 11:08:00,80.3,59.4,30.08,SSE,167,5.8,5.8,49,0.00,CLR,SKC,0.00,WeatherDisplay:10.37,2013-07-11 16:08:00,
2013-07-11 11:13:00,80.5,59.0,30.08,WSW,240,1.2,1.6,48,0.00,CLR,SKC,0.00,WeatherDisplay:10.37,2013-07-11 16:13:00,
2013-07-11 11:18:00,80.5,59.6,30.08,SSE,165,0.0,4.6,49,0.00,CLR,SKC,0.00,WeatherDisplay:10.37,2013-07-11 16:18:00,
2013-07-11 11:23:00,80.4,58.3,30.08,SE,146,0.0,1.9,47,0.00,CLR,SKC,0.00,WeatherDisplay:10.37,2013-07-11 16:23:00,
2013-07-11 11:28:00,80.8,58.1,30.08,SSW,196,3.5,0.0,46,0.00,CLR,SKC,0.00,WeatherDisplay:10.37,2013-07-11 16:28:00,
2013-07-11 11:34:00,81.3,59.7,30.08,SW,219,2.3,2.3,48,0.00,CLR,SKC,0.00,WeatherDisplay:10.37,2013-07-11 16:34:00,
2013-07-11 11:39:00,81.3,58.5,30.08,South,178,10.4,10.4,46,0.00,CLR,SKC,0.00,WeatherDisplay:10.37,2013-07-11 16:39:00,
2013-07-11 11:44:00,81.5,58.7,30.08,SSW,206,1.2,0.0,46,0.00,CLR,SKC,0.00,WeatherDisplay:10.37,2013-07-11 16:44:00,
2013-07-11 11:49:00,81.7,59.5,30.07,South,182,10.0,10.0,47,0.00,CLR,SKC,0.00,WeatherDisplay:10.37,2013-07-11 16:49:00,
2013-07-11 11:54:00,81.4,58.0,30.07,South,174,6.9,0.0,45,0.00,CLR,SKC,0.00,WeatherDisplay:10.37,2013-07-11 16:54:00,
2013-07-11 11:59:00,81.8,59.0,30.07,ESE,111,9.2,9.2,46,0.00,CLR,SKC,0.00,WeatherDisplay:10.37,2013-07-11 16:59:00,
2013-07-11 12:05:00,81.0,58.3,30.07,SSW,192,6.9,6.9,46,0.00,CLR,SKC,0.00,WeatherDisplay:10.37,2013-07-11 17:05:00,
2013-07-11 12:10:00,81.3,57.9,30.07,SSE,149,4.6,4.6,45,0.00,CLR,SKC,0.00,WeatherDisplay:10.37,2013-07-11 17:10:00,
2013-07-11 12:15:00,81.7,58.3,30.07,SE,137,0.0,0.0,45,0.00,CLR,SKC,0.00,WeatherDisplay:10.37,2013-07-11 17:15:00,
2013-07-11 12:20:00,82.5,60.2,30.07,SW,217,0.0,0.2,47,0.00,CLR,SKC,0.00,WeatherDisplay:10.37,2013-07-11 17:20:00,
2013-07-11 12:25:00,82.6,57.2,30.07,SSW,209,4.6,4.6,42,0.00,CLR,SKC,0.00,WeatherDisplay:10.37,2013-07-11 17:25:00,
2013-07-11 12:30:00,82.4,58.9,30.07,SSE,147,5.8,5.8,45,0.00,CLR,SKC,0.00,WeatherDisplay:10.37,2013-07-11 17:30:00,
2013-07-11 12:36:00,82.1,58.7,30.07,SSW,198,1.2,1.2,45,0.00,CLR,SKC,0.00,WeatherDisplay:10.37,2013-07-11 17:36:00,
2013-07-11 12:42:00,82.8,60.5,30.06,SSW,204,1.2,0.0,47,0.00,CLR,SKC,0.00,WeatherDisplay:10.37,2013-07-11 17:42:00,
2013-07-11 12:47:00,83.2,59.0,30.06,East,86,5.8,5.8,44,0.00,CLR,SKC,0.00,WeatherDisplay:10.37,2013-07-11 17:47:00,
2013-07-11 12:52:00,83.0,58.8,30.06,SSE,161,3.5,3.5,44,0.00,CLR,SKC,0.00,WeatherDisplay:10.37,2013-07-11 17:52:00,
2013-07-11 12:57:00,82.8,58.7,30.06,ESE,117,8.1,8.1,44,0.00,CLR,SKC,0.00,WeatherDisplay:10.37,2013-07-11 17:57:00,
2013-07-11 13:03:00,81.8,58.4,30.06,ESE,115,0.0,0.0,45,0.00,CLR,SKC,0.00,WeatherDisplay:10.37,2013-07-11 18:03:00,
2013-07-11 13:08:00,82.0,57.3,30.05,South,186,4.6,4.6,43,0.00,CLR,SKC,0.00,WeatherDisplay:10.37,2013-07-11 18:08:00,
2013-07-11 13:13:00,82.9,59.4,30.05,SSW,193,3.5,3.5,45,0.00,CLR,SKC,0.00,WeatherDisplay:10.37,2013-07-11 18:13:00,
2013-07-11 13:19:00,83.7,58.8,30.05,SSW,199,1.2,1.2,43,0.00,CLR,SKC,0.00,WeatherDisplay:10.37,2013-07-11 18:19:00,
2013-07-11 13:24:00,83.7,58.8,30.05,South,178,5.8,5.8,43,0.00,CLR,SKC,0.00,WeatherDisplay:10.37,2013-07-11 18:24:00,
2013-07-11 13:29:00,84.1,59.2,30.05,ESE,113,3.5,0.0,43,0.00,CLR,SKC,0.00,WeatherDisplay:10.37,2013-07-11 18:29:00,
2013-07-11 13:35:00,82.9,58.1,30.05,SSE,159,2.3,2.3,43,0.00,CLR,SKC,0.00,WeatherDisplay:10.37,2013-07-11 18:35:00,
2013-07-11 13:40:00,83.1,59.6,30.05,ESE,122,6.9,6.9,45,0.00,CLR,SKC,0.00,WeatherDisplay:10.37,2013-07-11 18:40:00,
2013-07-11 13:45:00,83.8,57.6,30.05,South,177,5.8,5.8,41,0.00,CLR,SKC,0.00,WeatherDisplay:10.37,2013-07-11 18:45:00,
2013-07-11 13:51:00,83.6,59.4,30.05,South,169,11.5,11.5,44,0.00,CLR,SKC,0.00,WeatherDisplay:10.37,2013-07-11 18:51:00,
2013-07-11 13:56:00,83.8,58.9,30.04,SSE,168,2.3,2.3,43,0.00,CLR,SKC,0.00,WeatherDisplay:10.37,2013-07-11 18:56:00,
2013-07-11 14:02:00,83.7,58.2,30.04,SSE,165,11.5,11.5,42,0.00,CLR,SKC,0.00,WeatherDisplay:10.37,2013-07-11 19:02:00,
2013-07-11 14:07:00,83.6,59.4,30.04,SSE,151,0.0,0.0,44,0.00,CLR,SKC,0.00,WeatherDisplay:10.37,2013-07-11 19:07:00,
2013-07-11 14:12:00,83.7,57.5,30.04,East,101,10.4,10.4,41,0.00,CLR,SKC,0.00,WeatherDisplay:10.37,2013-07-11 19:12:00,
2013-07-11 14:17:00,83.7,57.5,30.04,ESE,118,6.9,6.9,41,0.00,CLR,SKC,0.00,WeatherDisplay:10.37,2013-07-11 19:17:00,
2013-07-11 14:22:00,83.8,58.3,30.04,SW,214,0.0,1.1,42,0.00,CLR,SKC,0.00,WeatherDisplay:10.37,2013-07-11 19:22:00,
2013-07-11 14:27:00,83.6,56.7,30.03,South,176,12.7,12.7,40,0.00,CLR,SKC,0.00,WeatherDisplay:10.37,2013-07-11 19:27:00,
2013-07-11 14:32:00,83.4,57.2,30.03,SSW,194,1.0,0.0,41,0.00,CLR,SKC,0.00,WeatherDisplay:10.37,2013-07-11 19:32:00,
2013-07-11 14:37:00,84.3,57.3,30.03,SW,233,5.8,5.8,40,0.00,CLR,SKC,0.00,WeatherDisplay:10.37,2013-07-11 19:37:00,
2013-07-11 14:43:00,85.3,57.5,30.03,South,188,5.8,5.8,39,0.00,CLR,SKC,0.00,WeatherDisplay:10.37,2013-07-11 19:43:00,
2013-07-11 14:48:00,85.4,57.6,30.03,SE,146,5.8,5.8,39,0.00,CLR,SKC,0.00,WeatherDisplay:10.37,2013-07-11 19:48:00,
2013-07-11 14:54:00,85.8,56.5,30.03,SSW,204,7.0,7.0,37,0.00,CLR,SKC,0.00,WeatherDisplay:10.37,2013-07-11 19:54:00,
2013-07-11 14:59:00,85.9,57.3,30.03,SSW,193,1.2,1.2,38,0.00,CLR,SKC,0.00,WeatherDisplay:10.37,2013-07-11 19:59:00,
2013-07-11 15:04:00,86.0,58.2,30.03,SSE,160,0.0,0.0,39,0.00,CLR,SKC,0.00,WeatherDisplay:10.37,2013-07-11 20:04:00,
2013-07-11 15:10:00,87.0,59.0,30.03,WSW,257,1.2,1.2,39,0.00,CLR,SKC,0.00,WeatherDisplay:10.37,2013-07-11 20:10:00,
2013-07-11 15:15:00,87.1,56.9,30.03,SE,144,11.5,11.5,36,0.00,CLR,SKC,0.00,WeatherDisplay:10.37,2013-07-11 20:15:00,
2013-07-11 15:20:00,86.8,57.4,30.03,South,175,0.0,0.4,37,0.00,CLR,SKC,0.00,WeatherDisplay:10.37,2013-07-11 20:20:00,
2013-07-11 15:25:00,85.9,56.6,30.02,South,190,10.4,10.4,37,0.00,CLR,SKC,0.00,WeatherDisplay:10.37,2013-07-11 20:25:00,
2013-07-11 15:30:00,84.8,57.1,30.02,South,182,1.2,1.2,39,0.00,CLR,SKC,0.00,WeatherDisplay:10.37,2013-07-11 20:30:00,
2013-07-11 15:35:00,85.4,58.3,30.02,SW,236,0.0,0.4,40,0.00,CLR,SKC,0.00,WeatherDisplay:10.37,2013-07-11 20:35:00,
2013-07-11 15:41:00,86.2,57.6,30.02,South,173,1.2,1.2,38,0.00,CLR,SKC,0.00,WeatherDisplay:10.37,2013-07-11 20:41:00,
2013-07-11 15:46:00,85.9,56.6,30.02,South,176,1.2,1.2,37,0.00,CLR,SKC,0.00,WeatherDisplay:10.37,2013-07-11 20:46:00,
2013-07-11 15:52:00,85.8,56.5,30.02,ESE,111,6.9,6.9,37,0.00,CLR,SKC,0.00,WeatherDisplay:10.37,2013-07-11 20:52:00,
2013-07-11 15:57:00,85.3,56.8,30.02,SSE,159,3.5,3.5,38,0.00,CLR,SKC,0.00,WeatherDisplay:10.37,2013-07-11 20:57:00,
2013-07-11 16:02:00,85.6,56.3,30.01,SSE,159,1.2,1.2,37,0.00,CLR,SKC,0.00,WeatherDisplay:10.37,2013-07-11 21:02:00,
2013-07-11 16:07:00,85.8,56.5,30.01,SSW,200,3.5,3.5,37,0.00,CLR,SKC,0.00,WeatherDisplay:10.37,2013-07-11 21:07:00,
2013-07-11 16:12:00,85.6,57.1,30.01,SW,224,5.8,5.8,38,0.00,CLR,SKC,0.00,WeatherDisplay:10.37,2013-07-11 21:12:00,
2013-07-11 16:18:00,84.9,56.5,30.01,SE,134,4.6,4.6,38,0.00,CLR,SKC,0.00,WeatherDisplay:10.37,2013-07-11 21:18:00,
2013-07-11 16:24:00,84.5,56.1,30.01,SSE,164,11.5,11.5,38,0.00,CLR,SKC,0.00,WeatherDisplay:10.37,2013-07-11 21:24:00,
2013-07-11 16:29:00,84.7,56.3,30.01,ESE,111,8.1,8.1,38,0.00,CLR,SKC,0.00,WeatherDisplay:10.37,2013-07-11 21:29:00,
2013-07-11 16:35:00,84.7,55.5,30.01,South,171,11.5,11.5,37,0.00,CLR,SKC,0.00,WeatherDisplay:10.37,2013-07-11 21:35:00,
2013-07-11 16:40:00,84.4,56.0,30.01,South,175,6.9,6.9,38,0.00,CLR,SKC,0.00,WeatherDisplay:10.37,2013-07-11 21:40:00,
2013-07-11 16:45:00,84.8,55.6,30.01,SSW,205,3.5,3.5,37,0.00,CLR,SKC,0.00,WeatherDisplay:10.37,2013-07-11 21:45:00,
2013-07-11 16:51:00,85.5,56.3,30.01,South,169,10.4,10.4,37,0.00,CLR,SKC,0.00,WeatherDisplay:10.37,2013-07-11 21:51:00,
2013-07-11 16:56:00,85.4,57.6,30.00,ESE,123,2.3,2.3,39,0.00,CLR,SKC,0.00,WeatherDisplay:10.37,2013-07-11 21:56:00,
2013-07-11 17:02:00,85.6,58.5,30.00,South,191,3.5,3.5,40,0.00,CLR,SKC,0.00,WeatherDisplay:10.37,2013-07-11 22:02:00,
2013-07-11 17:07:00,85.6,59.2,30.00,East,92,3.5,3.5,41,0.00,CLR,SKC,0.00,WeatherDisplay:10.37,2013-07-11 22:07:00,
2013-07-11 17:12:00,85.2,58.8,30.00,South,176,4.6,4.6,41,0.00,CLR,SKC,0.00,WeatherDisplay:10.37,2013-07-11 22:12:00,
2013-07-11 17:17:00,85.6,58.5,30.00,South,189,4.6,4.6,40,0.00,CLR,SKC,0.00,WeatherDisplay:10.37,2013-07-11 22:17:00,
2013-07-11 17:23:00,85.8,58.7,30.00,South,182,11.5,11.5,40,0.00,CLR,SKC,0.00,WeatherDisplay:10.37,2013-07-11 22:23:00,
2013-07-11 17:29:00,85.6,58.5,30.00,South,190,5.8,5.8,40,0.00,CLR,SKC,0.00,WeatherDisplay:10.37,2013-07-11 22:29:00,
2013-07-11 17:34:00,85.2,59.5,29.99,SSE,157,5.8,5.8,42,0.00,CLR,SKC,0.00,WeatherDisplay:10.37,2013-07-11 22:34:00,
2013-07-11 17:40:00,84.9,57.2,29.99,SE,138,9.2,9.2,39,0.00,CLR,SKC,0.00,WeatherDisplay:10.37,2013-07-11 22:40:00,
2013-07-11 17:45:00,84.2,57.3,29.99,SSE,167,3.5,3.5,40,0.00,CLR,SKC,0.00,WeatherDisplay:10.37,2013-07-11 22:45:00,
2013-07-11 17:50:00,84.3,57.3,29.99,SE,130,4.6,4.6,40,0.00,CLR,SKC,0.00,WeatherDisplay:10.37,2013-07-11 22:50:00,
2013-07-11 17:56:00,84.0,57.1,29.99,South,169,12.7,12.7,40,0.00,CLR,SKC,0.00,WeatherDisplay:10.37,2013-07-11 22:56:00,
2013-07-11 18:01:00,84.1,58.5,29.98,ESE,120,4.6,4.6,42,0.00,CLR,SKC,0.00,WeatherDisplay:10.37,2013-07-11 23:01:00,
2013-07-11 18:06:00,84.5,58.2,29.98,South,169,3.5,3.5,41,0.00,CLR,SKC,0.00,WeatherDisplay:10.37,2013-07-11 23:06:00,
2013-07-11 18:11:00,84.6,56.2,29.98,SE,145,5.8,5.8,38,0.00,CLR,SKC,0.00,WeatherDisplay:10.37,2013-07-11 23:11:00,
2013-07-11 18:17:00,84.4,56.0,29.98,South,173,6.9,6.9,38,0.00,CLR,SKC,0.00,WeatherDisplay:10.37,2013-07-11 23:17:00,
2013-07-11 18:22:00,84.3,56.6,29.98,SSW,197,3.0,0.0,39,0.00,CLR,SKC,0.00,WeatherDisplay:10.37,2013-07-11 23:22:00,
2013-07-11 18:27:00,84.3,56.6,29.98,ESE,114,5.8,5.8,39,0.00,CLR,SKC,0.00,WeatherDisplay:10.37,2013-07-11 23:27:00,
2013-07-11 18:32:00,84.1,56.5,29.98,SW,215,11.5,11.5,39,0.00,CLR,SKC,0.00,WeatherDisplay:10.37,2013-07-11 23:32:00,
2013-07-11 18:38:00,84.1,56.5,29.98,South,173,4.6,4.6,39,0.00,CLR,SKC,0.00,WeatherDisplay:10.37,2013-07-11 23:38:00,
2013-07-11 18:43:00,83.9,56.3,29.98,SSE,166,5.8,5.8,39,0.00,CLR,SKC,0.00,WeatherDisplay:10.37,2013-07-11 23:43:00,
2013-07-11 18:48:00,83.7,56.1,29.98,South,175,8.1,8.1,39,0.00,CLR,SKC,0.00,WeatherDisplay:10.37,2013-07-11 23:48:00,
2013-07-11 18:53:00,83.7,56.1,29.98,SSW,207,4.6,4.6,39,0.00,CLR,SKC,0.00,WeatherDisplay:10.37,2013-07-11 23:53:00,
2013-07-11 18:59:00,83.6,56.7,29.98,SE,140,2.3,2.3,40,0.00,CLR,SKC,0.00,WeatherDisplay:10.37,2013-07-11 23:59:00,
2013-07-11 19:04:00,83.7,56.1,29.98,SE,136,1.2,1.2,39,0.00,CLR,SKC,0.00,WeatherDisplay:10.37,2013-07-12 00:04:00,
2013-07-11 19:09:00,83.5,56.6,29.98,South,182,6.9,6.9,40,0.00,CLR,SKC,0.00,WeatherDisplay:10.37,2013-07-12 00:09:00,
2013-07-11 19:14:00,83.1,56.3,29.97,SSE,147,2.3,0.0,40,0.00,CLR,SKC,0.00,WeatherDisplay:10.37,2013-07-12 00:14:00,
2013-07-11 19:19:00,82.9,56.1,29.97,South,184,4.6,4.6,40,0.00,CLR,SKC,0.00,WeatherDisplay:10.37,2013-07-12 00:19:00,
2013-07-11 19:25:00,82.9,56.8,29.97,SE,131,0.0,0.0,41,0.00,CLR,SKC,0.00,WeatherDisplay:10.37,2013-07-12 00:25:00,
2013-07-11 19:30:00,82.7,56.6,29.97,SE,130,0.0,0.0,41,0.00,CLR,SKC,0.00,WeatherDisplay:10.37,2013-07-12 00:30:00,
2013-07-11 19:35:00,82.3,56.2,29.97,South,183,11.5,11.5,41,0.00,CLR,SKC,0.00,WeatherDisplay:10.37,2013-07-12 00:35:00,
2013-07-11 19:40:00,82.0,56.0,29.97,SE,146,3.5,0.0,41,0.00,CLR,SKC,0.00,WeatherDisplay:10.37,2013-07-12 00:40:00,
2013-07-11 19:45:00,81.9,55.9,29.97,South,172,4.6,4.6,41,0.00,CLR,SKC,0.00,WeatherDisplay:10.37,2013-07-12 00:45:00,
2013-07-11 19:51:00,81.8,56.5,29.97,SSW,194,4.6,4.6,42,0.00,CLR,SKC,0.00,WeatherDisplay:10.37,2013-07-12 00:51:00,
2013-07-11 19:57:00,81.4,56.1,29.97,SSE,157,1.2,0.0,42,0.00,CLR,SKC,0.00,WeatherDisplay:10.37,2013-07-12 00:57:00,
2013-07-11 20:02:00,81.1,56.5,29.96,ESE,123,3.5,3.5,43,0.00,CLR,SKC,0.00,WeatherDisplay:10.37,2013-07-12 01:02:00,
2013-07-11 20:07:00,80.8,56.9,29.96,SE,135,0.0,0.0,44,0.00,CLR,SKC,0.00,WeatherDisplay:10.37,2013-07-12 01:07:00,
2013-07-11 20:12:00,80.5,56.6,29.96,ESE,107,5.8,5.8,44,0.00,CLR,SKC,0.00,WeatherDisplay:10.37,2013-07-12 01:12:00,
2013-07-11 20:17:00,80.2,56.9,29.96,SE,136,3.5,0.0,45,0.00,CLR,SKC,0.00,WeatherDisplay:10.37,2013-07-12 01:17:00,
2013-07-11 20:23:00,79.9,57.3,29.96,SE,144,0.0,0.2,46,0.00,CLR,SKC,0.00,WeatherDisplay:10.37,2013-07-12 01:23:00,
2013-07-11 20:29:00,79.6,57.0,29.96,SE,144,3.5,3.5,46,0.00,CLR,SKC,0.00,WeatherDisplay:10.37,2013-07-12 01:29:00,
2013-07-11 20:34:00,79.3,56.7,29.96,South,177,0.0,0.0,46,0.00,CLR,SKC,0.00,WeatherDisplay:10.37,2013-07-12 01:34:00,
2013-07-11 20:39:00,79.0,57.0,29.96,SSW,195,3.5,3.5,47,0.00,CLR,SKC,0.00,WeatherDisplay:10.37,2013-07-12 01:39:00,
2013-07-11 20:44:00,78.7,57.4,29.96,SE,136,3.5,3.5,48,0.00,CLR,SKC,0.00,WeatherDisplay:10.37,2013-07-12 01:44:00,
2013-07-11 20:49:00,78.3,57.0,29.96,South,187,5.8,5.8,48,0.00,CLR,SKC,0.00,WeatherDisplay:10.37,2013-07-12 01:49:00,
2013-07-11 20:55:00,78.0,57.3,29.96,SE,136,2.3,2.3,49,0.00,CLR,SKC,0.00,WeatherDisplay:10.37,2013-07-12 01:55:00,
2013-07-11 21:00:00,77.7,57.6,29.96,SSE,152,0.0,0.0,50,0.00,CLR,SKC,0.00,WeatherDisplay:10.37,2013-07-12 02:00:00,
2013-07-11 21:06:00,77.4,57.3,29.96,SE,144,3.5,3.5,50,0.00,CLR,SKC,0.00,WeatherDisplay:10.37,2013-07-12 02:06:00,
2013-07-11 21:11:00,77.1,57.0,29.96,SE,142,3.5,3.5,50,0.00,CLR,SKC,0.00,WeatherDisplay:10.37,2013-07-12 02:11:00,
2013-07-11 21:16:00,76.9,57.4,29.96,SE,146,1.2,0.0,51,0.00,CLR,SKC,0.00,WeatherDisplay:10.37,2013-07-12 02:16:00,
2013-07-11 21:21:00,76.6,57.1,29.97,SSE,154,3.5,3.5,51,0.00,CLR,SKC,0.00,WeatherDisplay:10.37,2013-07-12 02:21:00,
2013-07-11 21:26:00,76.4,57.5,29.97,SE,130,3.5,3.5,52,0.00,CLR,SKC,0.00,WeatherDisplay:10.37,2013-07-12 02:26:00,
2013-07-11 21:31:00,76.1,57.2,29.97,SSE,153,4.6,0.0,52,0.00,CLR,SKC,0.00,WeatherDisplay:10.37,2013-07-12 02:31:00,
2013-07-11 21:37:00,75.9,57.5,29.97,ESE,102,0.0,0.0,53,0.00,CLR,SKC,0.00,WeatherDisplay:10.37,2013-07-12 02:37:00,
2013-07-11 21:43:00,75.6,57.3,29.97,SSE,151,0.0,0.0,53,0.00,CLR,SKC,0.00,WeatherDisplay:10.37,2013-07-12 02:43:00,
2013-07-11 21:48:00,75.3,57.5,29.98,ESE,107,3.5,3.5,54,0.00,CLR,SKC,0.00,WeatherDisplay:10.37,2013-07-12 02:48:00,
2013-07-11 21:54:00,75.1,57.3,29.98,SE,142,3.5,3.5,54,0.00,CLR,SKC,0.00,WeatherDisplay:10.37,2013-07-12 02:54:00,
2013-07-11 22:01:00,74.9,57.1,29.98,SSE,165,3.5,3.5,54,0.00,CLR,SKC,0.00,WeatherDisplay:10.37,2013-07-12 03:01:00,
2013-07-11 22:06:00,74.7,57.5,29.98,SE,124,3.5,3.5,55,0.00,CLR,SKC,0.00,WeatherDisplay:10.37,2013-07-12 03:06:00,
2013-07-11 22:11:00,74.6,57.4,29.98,South,176,0.0,0.0,55,0.00,CLR,SKC,0.00,WeatherDisplay:10.37,2013-07-12 03:11:00,
2013-07-11 22:16:00,74.5,57.3,29.98,SSE,167,3.5,0.0,55,0.00,CLR,SKC,0.00,WeatherDisplay:10.37,2013-07-12 03:16:00,
2013-07-11 22:21:00,74.5,57.3,29.97,SSE,161,0.0,0.0,55,0.00,CLR,SKC,0.00,WeatherDisplay:10.37,2013-07-12 03:21:00,
2013-07-11 22:26:00,74.5,57.3,29.97,SSE,165,3.5,3.5,55,0.00,CLR,SKC,0.00,WeatherDisplay:10.37,2013-07-12 03:26:00,
2013-07-11 22:31:00,74.5,57.3,29.97,SE,133,3.5,0.0,55,0.00,CLR,SKC,0.00,WeatherDisplay:10.37,2013-07-12 03:31:00,
2013-07-11 22:37:00,74.3,57.1,29.97,SSE,149,10.4,10.4,55,0.00,CLR,SKC,0.00,WeatherDisplay:10.37,2013-07-12 03:37:00,
2013-07-11 22:42:00,74.2,57.0,29.97,SSE,157,6.9,6.9,55,0.00,CLR,SKC,0.00,WeatherDisplay:10.37,2013-07-12 03:42:00,
2013-07-11 22:47:00,74.1,56.9,29.97,SSE,151,5.8,5.8,55,0.00,CLR,SKC,0.00,WeatherDisplay:10.37,2013-07-12 03:47:00,
2013-07-11 22:52:00,74.0,56.8,29.97,SE,144,3.5,3.5,55,0.00,CLR,SKC,0.00,WeatherDisplay:10.37,2013-07-12 03:52:00,
2013-07-11 22:57:00,73.8,57.1,29.98,SSE,164,3.5,3.5,56,0.00,CLR,SKC,0.00,WeatherDisplay:10.37,2013-07-12 03:57:00,
2013-07-11 23:01:00,73.7,57.0,29.97,South,188,3.5,0.0,56,0.00,CLR,SKC,0.00,WeatherDisplay:10.37,2013-07-12 04:01:00,
2013-07-11 23:06:00,73.5,56.8,29.97,South,186,3.5,3.5,56,0.00,CLR,SKC,0.00,WeatherDisplay:10.37,2013-07-12 04:06:00,
2013-07-11 23:11:00,73.3,56.7,29.97,South,173,4.0,4.0,56,0.00,CLR,SKC,0.00,WeatherDisplay:10.37,2013-07-12 04:11:00,
2013-07-11 23:16:00,73.1,56.5,29.98,SE,141,3.5,0.0,56,0.00,CLR,SKC,0.00,WeatherDisplay:10.37,2013-07-12 04:16:00,
2013-07-11 23:21:00,73.0,56.9,29.98,SSE,161,0.0,0.0,57,0.00,CLR,SKC,0.00,WeatherDisplay:10.37,2013-07-12 04:21:00,
2013-07-11 23:26:00,73.0,56.9,29.98,SW,214,5.8,5.8,57,0.00,CLR,SKC,0.00,WeatherDisplay:10.37,2013-07-12 04:26:00,
2013-07-11 23:31:00,73.0,56.9,29.98,SSE,161,3.5,3.5,57,0.00,CLR,SKC,0.00,WeatherDisplay:10.37,2013-07-12 04:31:00,
2013-07-11 23:36:00,73.0,56.9,29.98,South,170,8.1,8.1,57,0.00,CLR,SKC,0.00,WeatherDisplay:10.37,2013-07-12 04:36:00,
2013-07-11 23:41:00,72.8,56.7,29.98,SE,130,5.8,5.8,57,0.00,CLR,SKC,0.00,WeatherDisplay:10.37,2013-07-12 04:41:00,
2013-07-11 23:46:00,72.8,56.7,29.98,East,100,9.0,9.0,57,0.00,CLR,SKC,0.00,WeatherDisplay:10.37,2013-07-12 04:46:00,
2013-07-11 23:51:00,72.8,56.7,29.98,SE,130,11.5,11.5,57,0.00,CLR,SKC,0.00,WeatherDisplay:10.37,2013-07-12 04:51:00,
2013-07-11 23:56:00,72.7,57.1,29.98,South,184,9.0,9.0,58,0.00,CLR,SKC,0.00,WeatherDisplay:10.37,2013-07-12 04:56:00,